Weather History for Bonaire, Bonaire

Change the Weather History Date:

Tuesday, September 18, 2012

  Actual Average Record
Temperature  
Mean Temperature 86 °F -  
Max Temperature 90 °F 88 °F 93 °F (2008)
Min Temperature 81 °F 81 °F 78 °F (2011)
Cooling Degree Days 20    
Growing Degree Days 36 (Base 50)    
Moisture  
Dew Point 76 °F    
Average Humidity 72    
Maximum Humidity 84    
Minimum Humidity 57    
Precipitation  
Precipitation 0.00 in - - ()
Sea Level Pressure  
Sea Level Pressure 29.93 in    
Wind  
Wind Speed 13 mph ()    
Max Wind Speed 17 mph    
Max Gust Speed 26 mph    
Visibility 6.2 miles    
Events      
Averages and records for this station are not official NWS values.
T = Trace of Precipitation, MM = Missing Value Source: Averaged Metar Reports

Daily Weather History Graph

Daily Weather History Graph

Search for Another Location

Airport:

Trip Planner

Search our weather history database for the weather conditions in past years. The results will help you decide how hot, cold, wet, or windy it might be!

Date:

Astronomy

Sep. 18, 2012 Rise Set
Actual Time 6:22 AM AST 6:31 PM AST
Civil Twilight 6:01 AM AST 6:52 PM AST
Nautical Twilight 5:36 AM AST 7:17 PM AST
Astronomical Twilight 5:11 AM AST 7:41 PM AST
Moon 8:36 AM AST (9/18) 8:37 PM AST (9/18)
Length of Visible Light 12h 51m
Length of Day
12h 09m
Waxing Crescent, 9% of the Moon is Illuminated
Sep 18
Waxing Crescent
Sep 22
First Quarter
Sep 29
Full
Oct 8
Last Quarter
Oct 15
New

Hourly Weather History & Observations

Time (AST) Temp. Heat Index Dew Point Humidity Pressure Visibility Wind Dir Wind Speed Gust Speed Precip Events Conditions
12:00 AM 82.4 °F 89.5 °F 75.2 °F 79% 29.92 in - North - - N/A   Unknown
1:00 AM 82.4 °F 89.5 °F 75.2 °F 79% 29.89 in - North - - N/A   Unknown
2:00 AM 82 °F - 76 °F 77%  in - ESE 17.3 mph - -   Clear
2:00 AM 82.4 °F 89.5 °F 75.2 °F 79% 29.89 in - North - - N/A   Unknown
3:00 AM 82.4 °F 89.5 °F 75.2 °F 79% 29.89 in - North - - N/A   Unknown
4:00 AM 80.6 °F 86.2 °F 75.2 °F 84% 29.89 in - North - - N/A   Unknown
5:00 AM 82 °F - 76 °F 76%  in - ESE 17.3 mph - -   Clear
5:00 AM 82.4 °F 89.5 °F 75.2 °F 79% 29.89 in - North - - N/A   Unknown
8:00 AM 86 °F - 77 °F 68% 29.97 in 31 mi East 12.7 mph - -   Partly Cloudy
8:00 AM 86.0 °F 96.9 °F 77.0 °F 74% 29.95 in 6.2 mi East 12.7 mph - N/A   Scattered Clouds
9:00 AM 87.8 °F 99.7 °F 77.0 °F 70% 29.98 in - North - - N/A   Unknown
10:00 AM 87.8 °F 99.7 °F 77.0 °F 70% 29.98 in 6.2 mi East 13.8 mph 26.5 mph N/A   Mostly Cloudy
11:00 AM 89 °F - 76 °F 57% 30.01 in 31 mi ESE 12.7 mph - -   Mostly Cloudy
11:00 AM 89.6 °F 99.8 °F 75.2 °F 62% 29.98 in 6.2 mi ESE 12.7 mph - N/A   Mostly Cloudy
12:00 PM 89.6 °F 102.2 °F 77.0 °F 66% 29.98 in - North - - N/A   Unknown
1:00 PM 91.4 °F 105.1 °F 77.0 °F 63% 29.95 in - North - - N/A   Unknown
2:00 PM 89.6 °F 99.8 °F 75.2 °F 62% 29.92 in 6.2 mi ESE 17.3 mph - N/A   Scattered Clouds
3:00 PM 89.6 °F 99.8 °F 75.2 °F 62% 29.89 in 6.2 mi ESE 17.3 mph - N/A   Scattered Clouds
4:00 PM 89.6 °F 102.2 °F 77.0 °F 66% 29.86 in 6.2 mi ESE 17.3 mph - N/A   Scattered Clouds
5:00 PM 88 °F - 76 °F 59% 29.89 in 25 mi East 10.4 mph - -   Partly Cloudy
5:00 PM 87.8 °F 97.6 °F 75.2 °F 66% 29.89 in 6.2 mi East 10.4 mph - N/A   Partly Cloudy
6:00 PM 86.0 °F 96.9 °F 77.0 °F 74% 29.89 in 6.2 mi ESE 17.3 mph - N/A   Partly Cloudy
7:00 PM 84.2 °F 92.3 °F 75.2 °F 74% 29.89 in 6.2 mi ESE 17.3 mph - N/A   Partly Cloudy
8:00 PM 84 °F - 75 °F 69% 29.95 in 22 mi East 11.5 mph - -   Scattered Clouds
8:00 PM 84.2 °F 94.1 °F 77.0 °F 79% 29.92 in 6.2 mi ESE 10.4 mph - N/A   Partly Cloudy
9:00 PM 82.4 °F 89.5 °F 75.2 °F 79% 29.95 in 6.2 mi ESE 17.3 mph - N/A   Partly Cloudy
10:00 PM 82.4 °F 89.5 °F 75.2 °F 79% 29.95 in 6.2 mi ESE 17.3 mph - N/A   Partly Cloudy
11:00 PM 83 °F - 76 °F 73%  in 6 mi ESE 17.3 mph - -   Clear
11:00 PM 82.4 °F 89.5 °F 75.2 °F 79% 29.98 in - North - - N/A   Unknown